TimeCST,TemperatureF,Dew PointF,Humidity,Sea Level PressureIn,VisibilityMPH,Wind Direction,Wind SpeedMPH,Gust SpeedMPH,PrecipitationIn,Events,Conditions,WindDirDegrees,DateUTC
12:52 AM,25.0,17.1,72,30.27,10.0,SSE,9.2,-,N/A,,Clear,160,2013-01-23 06:52:00
1:52 AM,24.1,17.1,75,30.27,10.0,SSE,9.2,-,N/A,,Clear,160,2013-01-23 07:52:00
2:52 AM,24.1,18.0,77,30.27,10.0,SSE,10.4,-,N/A,,Clear,160,2013-01-23 08:52:00
3:52 AM,24.1,18.0,77,30.25,10.0,SSE,9.2,-,N/A,,Clear,160,2013-01-23 09:52:00
4:52 AM,23.0,18.0,81,30.25,10.0,SSE,10.4,-,N/A,,Clear,150,2013-01-23 10:52:00
5:52 AM,23.0,18.0,81,30.26,10.0,SSE,8.1,-,N/A,,Clear,160,2013-01-23 11:52:00
6:52 AM,23.0,18.0,81,30.27,10.0,SSE,12.7,-,N/A,,Clear,160,2013-01-23 12:52:00
7:52 AM,23.0,18.0,81,30.27,10.0,SSE,8.1,-,N/A,,Clear,160,2013-01-23 13:52:00
8:52 AM,28.0,21.0,75,30.26,10.0,South,9.2,-,N/A,,Clear,170,2013-01-23 14:52:00
9:52 AM,34.0,24.1,67,30.28,10.0,South,5.8,-,N/A,,Clear,170,2013-01-23 15:52:00
10:52 AM,41.0,28.9,62,30.26,10.0,SW,5.8,-,N/A,,Clear,220,2013-01-23 16:52:00
11:52 AM,46.0,30.9,56,30.22,10.0,Variable,3.5,-,N/A,,Clear,0,2013-01-23 17:52:00
12:52 PM,52.0,35.1,53,30.19,10.0,West,5.8,-,N/A,,Clear,280,2013-01-23 18:52:00
1:52 PM,55.9,37.9,51,30.16,10.0,WNW,9.2,-,N/A,,Clear,290,2013-01-23 19:52:00
2:52 PM,55.9,37.9,51,30.17,10.0,West,9.2,-,N/A,,Clear,260,2013-01-23 20:52:00
3:52 PM,55.9,37.9,51,30.16,10.0,WNW,5.8,-,N/A,,Clear,300,2013-01-23 21:52:00
4:52 PM,48.9,37.0,64,30.16,10.0,NW,6.9,-,N/A,,Clear,320,2013-01-23 22:52:00
5:52 PM,46.9,37.0,68,30.18,10.0,WNW,3.5,-,N/A,,Clear,300,2013-01-23 23:52:00
6:52 PM,42.1,35.1,76,30.21,10.0,North,9.2,-,N/A,,Clear,350,2013-01-24 00:52:00
7:52 PM,41.0,32.0,70,30.25,10.0,North,10.4,-,N/A,,Clear,10,2013-01-24 01:52:00
8:52 PM,37.9,28.0,68,30.27,10.0,NNE,11.5,-,N/A,,Clear,30,2013-01-24 02:52:00
9:52 PM,35.1,26.1,70,30.28,10.0,NE,9.2,-,N/A,,Clear,40,2013-01-24 03:52:00
10:52 PM,34.0,24.1,67,30.29,10.0,NNE,10.4,-,N/A,,Clear,30,2013-01-24 04:52:00
11:52 PM,34.0,21.9,61,30.31,10.0,NNE,13.8,-,N/A,,Clear,20,2013-01-24 05:52:00